[[{"header":{"parameterUnit":"m.s-1","parameterCategory":1,"la1":30.2992,"la2":30.254,"lo1":-89.0895,"lo2":-89.0443,"dy":0.0025,"dx":0.0025,"nx":19,"ny":19,"refTime":"2026-04-09T03:00:00:Z","depth":0,"parameterNumber":2,"parameterNumberName":"U-component_of_WINDS"},"data":[0,0,0,-5.1224,-5.1228,-5.1409,-5.1409,-5.1687,-5.1689,0,0,0,0,0,0,0,0,0,0,0,-5.1199,-5.1202,-5.1224,-5.1229,-5.1409,-5.1409,-5.1686,-5.1689,0,0,0,0,0,0,0,0,0,0,0,-5.1198,-5.1201,-5.1205,-5.123,-5.1409,-5.1409,-5.1685,-5.1533,0,0,0,0,0,0,0,0,0,0,-5.135,-5.1355,-5.1201,-5.1205,-5.1231,-5.1409,-5.1409,-5.1525,-5.1542,-5.1625,0,-5.1707,0,-5.1703,-5.1711,-5.1712,0,0,0,-5.1207,-5.1341,-5.1363,-5.1206,-5.1233,-5.1408,-5.1322,-5.1534,-5.1554,-5.1649,-5.171,-5.1719,-5.1707,-5.1713,-5.1715,-5.2265,-5.2268,0,0,-5.1198,-5.1247,-5.135,-5.1378,-5.1353,-5.1316,-5.1327,-5.1545,-5.1615,-5.1711,-5.1725,-5.1712,-5.1715,-5.1718,-5.2261,-5.2266,0,0,0,-5.1183,-5.1241,-5.1257,-5.1368,-5.1396,-5.1322,-5.1335,-5.1606,-5.1607,-5.1727,-5.1715,-5.1717,-5.1721,-5.2257,-5.2263,-5.2489,0,0,0,-5.1176,-5.1233,-5.1254,-5.1287,-5.1393,-5.1504,-5.1392,-5.1592,-5.1615,-5.1714,-5.1717,-5.1724,-5.2253,-5.226,-5.2474,-5.2588,0,0,0,-5.1178,-5.1232,-5.1269,-5.1289,-5.1368,-5.1499,-5.1512,-5.1595,-5.1609,-5.1712,-5.1725,-5.2251,-5.2259,-5.2461,-5.2566,-5.2748,0,0,0,-5.1194,-5.1467,-5.1273,-5.1573,-5.1367,-5.1637,-5.1509,-5.1708,-5.1824,-5.1719,-5.2254,-5.2262,-5.2457,-5.2552,-5.2734,-5.2911,-5.2989,0,0,-5.1566,-5.1513,-5.1686,-5.1518,-5.1835,-5.1605,-5.1956,-5.2014,-5.1978,-5.2171,-5.2184,-5.2479,-5.2564,-5.2745,-5.3406,-5.3468,0,0,0,-5.1821,-5.1946,-5.2019,-5.2132,-5.2183,-5.2237,-5.2236,-5.2258,-5.2419,-5.2088,-5.2591,-5.2641,-5.2745,-5.2827,-5.288,-5.2966,-5.2302,-5.2301,-5.23,-5.2421,-5.236,-5.2641,-5.2603,-5.2714,-5.271,-5.2795,-5.2823,-5.2729,-5.2849,-5.2907,-5.3315,-5.3413,-5.3453,-5.3543,-5.2993,-5.2994,-5.2995,-5.2996,-5.2962,-5.3129,-5.2997,-5.3223,-5.3157,-5.3346,-5.3353,-5.328,-5.3447,-5.3267,-5.3355,-5.3165,-5.3523,-5.3599,-5.3012,-5.3009,-5.3007,-5.3006,-5.3004,-5.3349,-5.3419,-5.344,-5.3596,-5.3724,-5.3674,-5.384,-5.3773,-5.3711,-5.3799,-5.3852,-5.3848,-5.3837,-5.3829,-5.383,-5.3832,-5.3833,-5.3834,-5.3835,-5.3743,-5.376,-5.3908,-5.3985,-5.4048,-5.4123,-5.4122,-5.4183,-5.4233,-5.4171,-5.4171,-5.4066,-5.3569,-5.3446,-5.3856,-5.3853,-5.385,-5.3848,-5.3846,-5.4317,-5.4176,-5.4405,-5.4469,-5.4554,-5.4685,-5.4597,-5.4726,-5.4766,-5.485,-5.4725,-5.4368,-5.431,-5.4267,-5.4165,-5.4737,-5.4737,-5.4737,-5.4737,-5.4645,-5.4608,-5.4827,-5.4933,-5.5029,-5.4973,-5.5234,-5.5235,-5.5215,-5.5236,-5.5143,-5.5001,-5.4961,-5.4926,-5.4869,-5.4773,-5.5487,-5.5487,-5.5488,-5.4994,-5.4964,-5.5199,-5.5177,-5.5238,-5.5292,-5.5535,-5.5662,-5.5609,-5.5517,-5.5251,-5.5219,-5.499,-5.4918,-5.4822,-5.4735,-5.4557,0,0]},{"header":{"parameterUnit":"m.s-1","parameterCategory":1,"la1":30.2992,"la2":30.254,"lo1":-89.0895,"lo2":-89.0443,"dy":0.0025,"dx":0.0025,"nx":19,"ny":19,"refTime":"2026-04-09T03:00:00:Z","depth":0,"parameterNumber":3,"parameterNumberName":"V-component_of_WINDS"},"data":[0,0,0,-1.1631,-1.1632,-1.1675,-1.1676,-1.1724,-1.1724,0,0,0,0,0,0,0,0,0,0,0,-1.1613,-1.1613,-1.1631,-1.1632,-1.1675,-1.1676,-1.1724,-1.1724,0,0,0,0,0,0,0,0,0,0,0,-1.1613,-1.1613,-1.1613,-1.1632,-1.1675,-1.1676,-1.1724,-1.1694,0,0,0,0,0,0,0,0,0,0,-1.1653,-1.1631,-1.1613,-1.1613,-1.1632,-1.1675,-1.1676,-1.1692,-1.1695,-1.1701,0,-1.1703,0,-1.1714,-1.1727,-1.1727,0,0,0,-1.1636,-1.1629,-1.1645,-1.1613,-1.1633,-1.1675,-1.1657,-1.1694,-1.1698,-1.1705,-1.1704,-1.1706,-1.1715,-1.1727,-1.1727,-1.1741,-1.174,0,0,-1.1634,-1.1619,-1.1642,-1.1647,-1.1639,-1.1655,-1.1658,-1.1696,-1.1695,-1.1704,-1.1707,-1.1716,-1.1727,-1.1728,-1.1741,-1.1741,0,0,0,-1.1624,-1.1617,-1.1632,-1.1644,-1.1653,-1.1657,-1.166,-1.1694,-1.17,-1.1708,-1.1716,-1.1728,-1.1728,-1.1741,-1.1741,-1.1719,0,0,0,-1.1623,-1.1611,-1.1631,-1.1622,-1.1652,-1.1674,-1.1656,-1.1697,-1.1702,-1.1716,-1.1728,-1.1728,-1.1741,-1.1741,-1.172,-1.1711,0,0,0,-1.1612,-1.161,-1.1615,-1.1621,-1.1639,-1.1673,-1.1682,-1.1698,-1.1707,-1.1727,-1.1729,-1.1741,-1.1741,-1.1721,-1.1713,-1.1709,0,0,0,-1.1597,-1.1596,-1.1614,-1.1616,-1.1639,-1.1659,-1.1682,-1.1698,-1.1713,-1.1728,-1.1741,-1.1741,-1.1721,-1.1714,-1.171,-1.1703,-1.1699,0,0,-1.1588,-1.1595,-1.1597,-1.1614,-1.1627,-1.1654,-1.1664,-1.1693,-1.1709,-1.1729,-1.173,-1.1719,-1.1713,-1.1709,-1.1682,-1.1679,0,0,0,-1.1589,-1.1591,-1.1597,-1.161,-1.163,-1.1647,-1.1675,-1.1685,-1.1703,-1.1716,-1.1718,-1.1715,-1.1713,-1.1711,-1.1708,-1.1707,-1.1739,-1.1739,-1.1739,-1.1556,-1.1575,-1.1579,-1.1603,-1.1615,-1.1642,-1.1653,-1.1672,-1.169,-1.169,-1.1696,-1.1677,-1.1673,-1.1671,-1.167,-1.1694,-1.1694,-1.1694,-1.1694,-1.1543,-1.1548,-1.1568,-1.158,-1.16,-1.1611,-1.1637,-1.1648,-1.1661,-1.1674,-1.1674,-1.1686,-1.1667,-1.1667,-1.1693,-1.1693,-1.1693,-1.1693,-1.1693,-1.1523,-1.1528,-1.154,-1.1558,-1.157,-1.1594,-1.1604,-1.1623,-1.164,-1.164,-1.1648,-1.1648,-1.165,-1.1642,-1.1642,-1.1642,-1.1642,-1.1642,-1.1642,-1.1498,-1.1511,-1.1517,-1.1536,-1.1545,-1.156,-1.1586,-1.1596,-1.1611,-1.1624,-1.1624,-1.164,-1.1661,-1.1665,-1.1641,-1.1641,-1.1641,-1.1641,-1.1641,-1.1478,-1.1484,-1.1493,-1.1502,-1.1525,-1.1535,-1.1558,-1.1575,-1.1586,-1.159,-1.1606,-1.1619,-1.1628,-1.163,-1.1634,-1.1603,-1.1603,-1.1603,-1.1603,-1.146,-1.1466,-1.1477,-1.149,-1.1504,-1.1525,-1.1533,-1.1553,-1.1575,-1.1582,-1.1589,-1.1596,-1.1598,-1.1606,-1.1609,-1.1612,-1.1576,-1.1576,-1.1576,-1.1448,-1.1455,-1.1459,-1.1479,-1.1498,-1.1513,-1.1522,-1.1535,-1.1562,-1.1576,-1.1588,-1.1589,-1.16,-1.1603,-1.1618,-1.1622,-1.1629,0,0]}]]